Regional Weather Roundup
Issued by NWS

Home | Current Version | Previous Version | Text Only | Print | Product List | Glossary Off
Versions: 1 2 3 4 5 6 7 8 9 10 11 12 13 14 15 16 17 18 19 20 21 22 23 24 25 26 27 28 29 30 31 32 33 34 35 36 37 38 39 40 41 42 43 44 45 46 47 48 49 50

000
ASUS43 KDTX 281310
RWRMI
MICHIGAN HOURLY REGIONAL WEATHER ROUNDUP
NATIONAL WEATHER SERVICE DETROIT/PONTIAC MI
900 AM EDT SAT MAY 28 2016

NOTE: "FAIR" INDICATES FEW OR NO CLOUDS BELOW 12,000 FEET WITH NO
SIGNIFICANT WEATHER AND/OR OBSTRUCTION TO VISIBILITY.

MIZ047>049-052>055-059>063-066>070-074>076-081>083-281400-
SOUTHEAST LOWER MICHIGAN

CITY           SKY/WX    TMP DP  RH WIND       PRES   REMARKS
ADRIAN         MOSUNNY   76  65  68 SW8       30.04R
ALMA           LGT RAIN  71  65  82 S14G23    29.99R
ANN ARBOR      PTSUNNY   74  65  73 S9        30.03R
BAD AXE        SUNNY     76  64  67 S7        30.02R
CARO           SUNNY     78  65  65 S7        30.00S
DETROIT CITY   MOSUNNY   76  64  66 S7        30.04R
DETROIT        CLOUDY    75  64  68 S7        30.04S
FLINT          SUNNY     81  64  56 S12       30.01S
GROSSE ILE     MOSUNNY   72  66  83 S3        30.03S
HILLSDALE      CLOUDY    72  62  71 S7        30.03S
HOWELL         MOSUNNY   76  64  67 S7        30.03R

CITY           SKY/WX    TMP DP  RH WIND       PRES   REMARKS
JACKSON        MOSUNNY   76  66  71 SW10      30.03R
LAMBERTVILLE   MOSUNNY   77  65  68 S6        30.04R
LANSING        CLOUDY    72  65  78 S7        30.00R
LAPEER         FAIR      79  63  56 S7        30.03R
MASON          CLOUDY    74  64  72 S8        30.01S
MONROE         PTSUNNY   73  67  80 S13       30.03R
MT. CLEMENS    PTSUNNY   74  66  76 S6        30.03R
PONTIAC        MOSUNNY   77  64  64 S9        30.03R
PORT HOPE        N/A     77  64  64 VRB6      29.99S
PORT HURON     SUNNY     75  66  73 S3        30.04R
TRI CITIES     SUNNY     77  64  64 S10       29.99S
MIDLAND        FAIR      75  64  69 S3        29.97S
TROY           MOSUNNY   76  65  67 SW7       30.05S
SAGINAW HB     SUNNY     77  63  61 S9        29.99R
$$
MIZ043>046-050>051-056>058-064>065-071>073-077>080-281400-
SOUTHWEST LOWER MICHIGAN

CITY           SKY/WX    TMP DP  RH WIND       PRES   REMARKS
BATTLE CREEK   CLOUDY    71  65  81 S12       30.00R
BENTON HARBOR  CLOUDY    74  63  68 S12G20    29.93R
BIG RAPIDS     CLOUDY    69  66  91 S6        29.94S
COLDWATER      CLOUDY    73  64  72 S6        30.01R
FREMONT        FAIR      70  67  92 S8        29.92R
HOLLAND        CLOUDY    72  64  76 S8        29.94R
GRAND RAPIDS   CLOUDY    72  64  76 S9        29.96R
IONIA          CLOUDY    71  62  75 S12       29.97S
KALAMAZOO      CLOUDY    74  64  71 S12G18    29.98R
LUDINGTON      CLOUDY    71  65  82 SE8       29.89R
MARSHALL       CLOUDY    75  66  73 S7        30.00R
MOUNT PLEASANT CLOUDY    74  65  74 S8        29.97R
MUSKEGON       CLOUDY    73  63  70 S12       29.91R
SOUTH HAVEN    CLOUDY    74  64  71 S9        29.94R
$$
MIZ016>042-281400-
NORTHERN LOWER MICHIGAN

CITY           SKY/WX    TMP DP  RH WIND       PRES   REMARKS
ALPENA         PTSUNNY   65  61  87 SE5       29.97F
BEAVER ISLAND  MOSUNNY   67  65  91 S7        29.90S
BELLAIRE       CLOUDY    72  65  78 S3        29.92S
CADILLAC       MOSUNNY   70  64  82 S8        29.94S
CHARLEVOIX     CLOUDY    71  66  84 S5        29.94S
FRANKFORT      CLOUDY    71  65  82 SE8       29.88S
GAYLORD        CLOUDY    71  65  81 S8        29.96S
GRAYLING       CLOUDY    70  67  88 SE3       29.97R
HARBOR SPRINGS CLOUDY    70  65  84 SW3       29.92S
HOUGHTON LAKE  CLOUDY    70  66  87 SE8       29.97S
MANISTEE       CLOUDY    70  63  78 SE6       29.89S
OSCODA         SUNNY     76  64  66 S6        29.97F
PELLSTON       CLOUDY    71  66  84 SE7       29.93R
ROGERS CITY    CLOUDY    66  62  89 SE6       29.97S
TRAVERSE CITY  CLOUDY    72  65  78 VRB3      29.89S
$$
MIZ007>008-015-281400-
EASTERN UPPER MICHIGAN

CITY           SKY/WX    TMP DP  RH WIND       PRES   REMARKS
KINROSS          N/A     64  64 100 SE14      29.93S
MACKINAC ISLAN CLOUDY    60  60 100 SE5       29.92S FOG
NEWBERRY       CLOUDY    65  64  97 S8G17     29.89R
S. S. MARIE    CLOUDY    62  60  93 SE8       29.93S
MUNISING         N/A     63  61  93 S7        29.83R
$$
MIZ004>006-011>014-085-281400-
CENTRAL UPPER MICHIGAN

CITY           SKY/WX    TMP DP  RH WIND       PRES   REMARKS
MANISTIQUE     FOG       55  55  97 S5        29.88R VSB 1/4
ESCANABA       CLOUDY    57  55  94 MISG      29.84R
MENOMINEE      CLOUDY    61  61 100 S5        29.83S
SAWYER-GWINN   FOG       61  59  94 S10       29.84R VSB 1/4
$$
MIZ001>003-009>011-084-281400-
WESTERN UPPER MICHIGAN

CITY           SKY/WX    TMP DP  RH WIND       PRES   REMARKS
IRON MOUNTAIN  CLOUDY    63  62  97 SE6       29.81S FOG
HOUGHTON       LGT RAIN  56  55  97 E5        29.79S FOG
COPPER HARBOR    N/A     59  59 100 SW8       29.78S
IRONWOOD       CLOUDY    63  61  94 W7        29.74F
$$

ABBREVIATIONS USED IN REMARKS
   TC - TEMPERATURE IN CELSIUS
  WCI - WIND CHILL INDEX
   HX - HEAT INDEX
  VSB - VISIBILITY





USA.gov is the U.S. government's official web portal to all federal, state and local government web resources and services.